Location: Borovka
(49.7741°N, 14.5280°E)
Time: 18:27:55
(UTC+00:00)

ZACube-1 - Visible Passes

Search period start: 07 March 2026 00:00
Search period end: 17 March 2026 00:00
Orbit: 537 x 595 km, 97.8° (Epoch: 7 March)

Date Brightness Start Highest point End Pass type
(mag) Time Alt. Az. Time Alt. Az. Time Alt. Az.
7 Mar ? 02:00:45 10° NNE 02:02:13 20° NNE 02:02:13 20° NNE visible
7 Mar ? 03:36:26 10° NNW 03:38:16 18° NW 03:38:16 18° NW visible
8 Mar ? 02:01:22 10° NNE 02:02:58 22° NNE 02:02:58 22° NNE visible
8 Mar ? 03:37:03 10° NNW 03:39:01 18° NW 03:39:01 18° NW visible
9 Mar ? 02:01:58 10° NNE 02:03:41 23° NE 02:03:41 23° NE visible
9 Mar ? 03:37:40 10° NNW 03:39:45 18° NW 03:39:45 18° NW visible
10 Mar ? 02:02:33 10° NNE 02:04:25 24° NE 02:04:25 24° NE visible
10 Mar ? 03:38:17 10° NNW 03:40:28 19° NW 03:40:28 19° NW visible
11 Mar ? 02:03:08 10° NNE 02:05:08 26° NE 02:05:08 26° NE visible
11 Mar ? 03:38:53 10° NNW 03:41:11 19° NW 03:41:11 19° NW visible
12 Mar ? 02:03:42 10° NNE 02:05:50 28° NE 02:05:50 28° NE visible
12 Mar ? 03:39:28 10° NNW 03:41:52 19° NW 03:41:52 19° NW visible
13 Mar ? 02:04:16 10° NNE 02:06:31 29° NE 02:06:31 29° NE visible
13 Mar ? 03:40:03 10° NNW 03:42:34 19° NW 03:42:34 19° NW visible
14 Mar ? 02:04:48 10° NNE 02:07:12 31° NE 02:07:12 31° NE visible
14 Mar ? 03:40:36 10° NNW 03:43:14 19° WNW 03:43:14 19° WNW visible
15 Mar ? 02:05:21 10° NNE 02:07:52 33° NE 02:07:52 33° NE visible
15 Mar ? 03:41:10 10° NNW 03:43:54 18° WNW 03:43:54 18° WNW visible
16 Mar ? 02:05:52 10° NNE 02:08:31 35° NE 02:08:31 35° NE visible
16 Mar ? 03:41:43 10° NNW 03:44:29 18° WNW 03:44:34 18° WNW visible
